StationID,Date,MaxTemp,MinTemp,Precipitation,Snowfall,SnowDepth
"CA001181465","1961-07-01",62.96,46.04,0.00,0.00,
"CA001181465","1961-07-02",71.96,48.02,0.00,0.00,
"CA001181465","1961-07-03",78.98,48.92,0.00,0.00,
"CA001181465","1961-07-04",78.98,53.06,0.00,0.00,
"CA001181465","1961-07-05",82.94,51.98,0.00,0.00,
"CA001181465","1961-07-06",71.96,48.92,58.00,0.00,
"CA001181465","1961-07-07",78.98,51.08,94.00,0.00,
"CA001181465","1961-07-08",69.98,46.04,0.00,0.00,
"CA001181465","1961-07-09",73.04,48.92,0.00,0.00,
"CA001181465","1961-07-10",75.92,51.08,0.00,0.00,
"CA001181465","1961-07-11",77.00,51.98,0.00,0.00,
"CA001181465","1961-07-12",80.96,55.04,0.00,0.00,
"CA001181465","1961-07-13",91.94,51.08,0.00,0.00,
"CA001181465","1961-07-14",66.92,55.04,0.00,0.00,
"CA001181465","1961-07-15",69.08,42.08,10.00,0.00,
"CA001181465","1961-07-16",62.96,46.94,0.00,0.00,
"CA001181465","1961-07-17",69.98,39.92,0.00,0.00,
"CA001181465","1961-07-18",78.08,51.98,0.00,0.00,
"CA001181465","1961-07-19",82.04,57.02,0.00,0.00,
"CA001181465","1961-07-20",82.04,60.08,18.00,0.00,
"CA001181465","1961-07-21",71.96,55.94,0.00,0.00,
"CA001181465","1961-07-22",73.94,48.92,0.00,0.00,
"CA001181465","1961-07-23",69.98,51.08,5.00,0.00,
"CA001181465","1961-07-24",71.06,51.98,0.00,0.00,
"CA001181465","1961-07-25",69.08,51.98,0.00,0.00,
"CA001181465","1961-07-26",62.96,48.02,0.00,0.00,
"CA001181465","1961-07-27",66.92,44.96,89.00,0.00,
"CA001181465","1961-07-28",60.98,44.06,81.00,0.00,
"CA001181465","1961-07-29",68.00,46.94,0.00,0.00,
"CA001181465","1961-07-30",69.98,44.06,0.00,0.00,
"CA001181465","1961-07-31",80.96,46.04,0.00,0.00,
"CA001181465","1961-08-01",,,0.00,0.00,
"CA001181465","1961-08-02",,,0.00,0.00,
"CA001181465","1961-08-03",,,0.00,0.00,
"CA001181465","1961-08-04",,,0.00,0.00,
"CA001181465","1961-08-05",,,33.00,0.00,
"CA001181465","1961-08-06",,,0.00,0.00,
"CA001181465","1961-08-07",,,0.00,0.00,
"CA001181465","1961-08-08",,,0.00,0.00,
"CA001181465","1961-08-09",,,0.00,0.00,
"CA001181465","1961-08-10",,,0.00,0.00,
"CA001181465","1961-08-11",,,0.00,0.00,
"CA001181465","1961-08-12",,,0.00,0.00,
"CA001181465","1961-08-13",,,0.00,0.00,
"CA001181465","1961-08-14",,,0.00,0.00,
"CA001181465","1961-08-15",,,0.00,0.00,
"CA001181465","1961-08-16",,,0.00,0.00,
"CA001181465","1961-08-17",,,0.00,0.00,
"CA001181465","1961-08-18",,,0.00,0.00,
"CA001181465","1961-08-19",,,0.00,0.00,
"CA001181465","1961-08-20",,,0.00,0.00,
"CA001181465","1961-08-21",,,0.00,0.00,
"CA001181465","1961-08-22",,,0.00,0.00,
"CA001181465","1961-08-23",,,0.00,0.00,
"CA001181465","1961-08-24",,,0.00,0.00,
"CA001181465","1961-08-25",,,0.00,0.00,
"CA001181465","1961-08-26",,,0.00,0.00,
"CA001181465","1961-08-27",,,0.00,0.00,
"CA001181465","1961-08-28",,,0.00,0.00,
"CA001181465","1961-08-29",,,0.00,0.00,
"CA001181465","1961-08-30",,,61.00,0.00,
"CA001181465","1961-08-31",,,94.00,0.00,
"CA001181465","1961-09-01",,,10.00,0.00,
"CA001181465","1961-09-02",,,20.00,0.00,
"CA001181465","1961-09-03",,,74.00,0.00,
"CA001181465","1961-09-04",,,23.00,0.00,
"CA001181465","1961-09-05",,,8.00,0.00,
"CA001181465","1961-09-06",,,38.00,0.00,
"CA001181465","1961-09-07",,,36.00,0.00,
"CA001181465","1961-09-08",,,8.00,0.00,
"CA001181465","1961-09-09",,,0.00,0.00,
"CA001181465","1961-09-10",,,0.00,0.00,
"CA001181465","1961-09-11",,,0.00,0.00,
"CA001181465","1961-09-12",,,0.00,0.00,
"CA001181465","1961-09-13",,,0.00,0.00,
"CA001181465","1961-09-14",,,0.00,0.00,
"CA001181465","1961-09-15",,,0.00,0.00,
"CA001181465","1961-09-16",,,0.00,0.00,
"CA001181465","1961-09-17",,,30.00,0.00,
"CA001181465","1961-09-18",,,0.00,0.00,
"CA001181465","1961-09-19",,,0.00,0.00,
"CA001181465","1961-09-20",,,0.00,0.00,
"CA001181465","1961-09-21",,,0.00,0.00,
"CA001181465","1961-09-22",,,0.00,0.00,
"CA001181465","1961-09-23",,,0.00,0.00,
"CA001181465","1961-09-24",,,15.00,0.00,
"CA001181465","1961-09-25",,,0.00,0.00,
"CA001181465","1961-09-26",,,0.00,0.00,
"CA001181465","1961-09-27",,,0.00,0.00,
"CA001181465","1961-09-28",,,0.00,0.00,
"CA001181465","1961-09-29",,,0.00,0.00,
"CA001181465","1961-09-30",,,0.00,0.00,
"CA001181465","1962-04-01",46.94,28.04,0.00,0.00,
"CA001181465","1962-04-02",48.02,30.92,0.00,0.00,
"CA001181465","1962-04-03",57.92,26.96,0.00,0.00,
"CA001181465","1962-04-04",51.08,35.96,0.00,0.00,
"CA001181465","1962-04-05",46.04,24.08,0.00,0.00,
"CA001181465","1962-04-06",37.04,30.92,0.00,0.00,
"CA001181465","1962-04-07",35.96,17.06,33.00,33.00,
"CA001181465","1962-04-08",44.06,24.08,147.00,147.00,
"CA001181465","1962-04-09",35.06,23.00,38.00,38.00,
"CA001181465","1962-04-10",30.92,24.08,25.00,25.00,
"CA001181465","1962-04-11",37.94,10.04,0.00,0.00,
"CA001181465","1962-04-12",50.00,21.92,0.00,0.00,
"CA001181465","1962-04-13",53.06,30.02,0.00,0.00,
"CA001181465","1962-04-14",57.02,33.98,0.00,0.00,
"CA001181465","1962-04-15",50.00,35.06,0.00,0.00,
"CA001181465","1962-04-16",51.98,33.98,0.00,0.00,
"CA001181465","1962-04-17",53.06,32.00,0.00,0.00,
"CA001181465","1962-04-18",50.00,32.00,13.00,0.00,
"CA001181465","1962-04-19",51.08,33.08,43.00,0.00,
"CA001181465","1962-04-20",51.98,32.00,0.00,0.00,
"CA001181465","1962-04-21",48.92,32.00,0.00,0.00,
"CA001181465","1962-04-22",57.92,33.08,0.00,0.00,
"CA001181465","1962-04-23",53.06,35.06,0.00,0.00,
"CA001181465","1962-04-24",37.94,33.98,208.00,76.00,
"CA001181465","1962-04-25",48.02,26.96,0.00,0.00,
"CA001181465","1962-04-26",44.06,28.94,0.00,0.00,
"CA001181465","1962-04-27",42.98,28.94,0.00,0.00,
"CA001181465","1962-04-28",42.98,32.00,0.00,0.00,
"CA001181465","1962-04-29",53.96,28.04,0.00,0.00,
"CA001181465","1962-04-30",,,0.00,0.00,
"CA001181465","1962-05-01",57.92,33.08,0.00,0.00,
"CA001181465","1962-05-02",46.04,30.02,0.00,0.00,
"CA001181465","1962-05-03",39.02,23.00,28.00,28.00,
"CA001181465","1962-05-04",41.00,26.96,0.00,0.00,
"CA001181465","1962-05-05",48.02,26.06,30.00,0.00,
"CA001181465","1962-05-06",41.00,30.02,0.00,0.00,
"CA001181465","1962-05-07",48.02,23.00,0.00,0.00,
"CA001181465","1962-05-08",55.04,26.96,0.00,0.00,
"CA001181465","1962-05-09",55.94,33.08,0.00,0.00,
"CA001181465","1962-05-10",62.06,35.06,0.00,0.00,
"CA001181465","1962-05-11",53.96,30.92,0.00,0.00,
"CA001181465","1962-05-12",55.94,32.00,0.00,0.00,
"CA001181465","1962-05-13",59.00,35.06,0.00,0.00,
"CA001181465","1962-05-14",60.98,39.02,0.00,0.00,
"CA001181465","1962-05-15",55.04,37.04,0.00,0.00,
"CA001181465","1962-05-16",62.96,30.92,0.00,0.00,
"CA001181465","1962-05-17",62.06,44.96,8.00,0.00,
"CA001181465","1962-05-18",57.92,33.98,18.00,0.00,
"CA001181465","1962-05-19",48.02,37.94,46.00,0.00,
"CA001181465","1962-05-20",50.00,33.98,0.00,0.00,
"CA001181465","1962-05-21",64.94,35.06,0.00,0.00,
"CA001181465","1962-05-22",64.04,39.92,0.00,0.00,
"CA001181465","1962-05-23",66.92,42.08,0.00,0.00,
"CA001181465","1962-05-24",71.06,42.98,0.00,0.00,
"CA001181465","1962-05-25",69.08,46.94,0.00,0.00,
"CA001181465","1962-05-26",66.02,46.04,0.00,0.00,
"CA001181465","1962-05-27",66.92,41.00,0.00,0.00,
"CA001181465","1962-05-28",64.94,42.98,10.00,0.00,
"CA001181465","1962-05-29",55.04,41.00,0.00,0.00,
"CA001181465","1962-05-30",60.08,37.04,0.00,0.00,
"CA001181465","1962-05-31",64.94,35.96,5.00,0.00,
"CA001181465","1962-06-01",60.98,37.94,0.00,0.00,
"CA001181465","1962-06-02",64.04,33.98,28.00,0.00,
"CA001181465","1962-06-03",55.94,35.06,0.00,0.00,
"CA001181465","1962-06-04",57.92,35.06,0.00,0.00,
"CA001181465","1962-06-05",64.04,37.04,0.00,0.00,
"CA001181465","1962-06-06",71.96,39.02,0.00,0.00,
"CA001181465","1962-06-07",75.02,44.06,0.00,0.00,
"CA001181465","1962-06-08",62.96,51.08,0.00,0.00,
"CA001181465","1962-06-09",60.08,35.06,0.00,0.00,
"CA001181465","1962-06-10",59.00,35.96,0.00,0.00,
"CA001181465","1962-06-11",57.02,39.92,163.00,0.00,
"CA001181465","1962-06-12",64.04,41.00,0.00,0.00,
"CA001181465","1962-06-13",66.92,42.98,0.00,0.00,
"CA001181465","1962-06-14",73.94,39.92,0.00,0.00,
"CA001181465","1962-06-15",66.92,53.06,0.00,0.00,
"CA001181465","1962-06-16",68.00,44.96,53.00,0.00,
"CA001181465","1962-06-17",66.02,44.06,0.00,0.00,
"CA001181465","1962-06-18",64.04,42.08,0.00,0.00,
"CA001181465","1962-06-19",64.94,44.06,0.00,0.00,
"CA001181465","1962-06-20",64.94,42.08,0.00,0.00,
"CA001181465","1962-06-21",75.02,42.98,0.00,0.00,
"CA001181465","1962-06-22",69.08,51.08,0.00,0.00,
"CA001181465","1962-06-23",71.06,46.04,0.00,0.00,
"CA001181465","1962-06-24",73.94,53.06,0.00,0.00,
"CA001181465","1962-06-25",78.98,53.96,0.00,0.00,
"CA001181465","1962-06-26",57.92,55.04,315.00,0.00,
"CA001181465","1962-06-27",57.02,44.06,69.00,0.00,
"CA001181465","1962-06-28",64.94,44.96,8.00,0.00,
"CA001181465","1962-06-29",66.02,42.98,10.00,0.00,
"CA001181465","1962-06-30",62.06,46.94,0.00,0.00,
"CA001181465","1962-07-01",64.04,42.08,0.00,0.00,
"CA001181465","1962-07-02",57.92,39.92,8.00,0.00,
"CA001181465","1962-07-03",60.08,42.08,28.00,0.00,
"CA001181465","1962-07-04",62.96,44.06,0.00,0.00,
"CA001181465","1962-07-05",64.94,37.94,0.00,0.00,
"CA001181465","1962-07-06",73.04,41.00,0.00,0.00,
"CA001181465","1962-07-07",62.96,46.04,0.00,0.00,
"CA001181465","1962-07-08",73.04,42.08,10.00,0.00,
"CA001181465","1962-07-09",60.98,42.98,46.00,0.00,
"CA001181465","1962-07-10",71.96,44.06,0.00,0.00,
"CA001181465","1962-07-11",75.02,48.02,0.00,0.00,
"CA001181465","1962-07-12",71.96,51.08,0.00,0.00,
"CA001181465","1962-07-13",69.98,46.04,64.00,0.00,
"CA001181465","1962-07-14",64.94,48.02,5.00,0.00,
"CA001181465","1962-07-15",69.98,44.06,0.00,0.00,
"CA001181465","1962-07-16",69.08,44.96,269.00,0.00,
"CA001181465","1962-07-17",64.94,51.08,107.00,0.00,
"CA001181465","1962-07-18",64.04,51.98,48.00,0.00,
"CA001181465","1962-07-19",60.98,46.94,89.00,0.00,
"CA001181465","1962-07-20",57.92,48.02,150.00,0.00,
"CA001181465","1962-07-21",71.06,53.96,0.00,0.00,
"CA001181465","1962-07-22",75.92,55.04,0.00,0.00,
"CA001181465","1962-07-23",82.04,53.96,0.00,0.00,
"CA001181465","1962-07-24",78.08,55.04,0.00,0.00,
"CA001181465","1962-07-25",77.00,60.08,0.00,0.00,
"CA001181465","1962-07-26",73.94,51.98,15.00,0.00,
"CA001181465","1962-07-27",66.92,51.08,66.00,0.00,
"CA001181465","1962-07-28",62.96,46.94,0.00,0.00,
"CA001181465","1962-07-29",75.02,48.92,0.00,0.00,
"CA001181465","1962-07-30",84.02,55.04,0.00,0.00,
"CA001181465","1962-07-31",80.06,57.92,0.00,0.00,
"CA001181465","1962-08-01",80.06,57.92,0.00,0.00,
"CA001181465","1962-08-02",77.00,51.08,0.00,0.00,
"CA001181465","1962-08-03",69.98,51.08,46.00,0.00,
"CA001181465","1962-08-04",66.92,51.98,0.00,0.00,
"CA001181465","1962-08-05",69.98,51.08,0.00,0.00,
"CA001181465","1962-08-06",57.92,51.98,0.00,0.00,
"CA001181465","1962-08-07",69.98,41.00,0.00,0.00,
"CA001181465","1962-08-08",69.98,46.04,0.00,0.00,
"CA001181465","1962-08-09",64.04,48.02,0.00,0.00,
"CA001181465","1962-08-10",69.08,46.94,0.00,0.00,
"CA001181465","1962-08-11",69.98,46.04,33.00,0.00,
"CA001181465","1962-08-12",64.94,48.92,61.00,0.00,
"CA001181465","1962-08-13",53.96,50.00,132.00,0.00,
"CA001181465","1962-08-14",64.94,46.94,15.00,0.00,
"CA001181465","1962-08-15",66.02,48.02,0.00,0.00,
"CA001181465","1962-08-16",64.94,50.00,3.00,0.00,
"CA001181465","1962-08-17",69.08,48.92,0.00,0.00,
"CA001181465","1962-08-18",66.02,46.04,0.00,0.00,
"CA001181465","1962-08-19",64.04,44.06,0.00,0.00,
"CA001181465","1962-08-20",69.98,50.00,53.00,0.00,
"CA001181465","1962-08-21",53.96,46.04,51.00,0.00,
"CA001181465","1962-08-22",62.96,41.00,0.00,0.00,
"CA001181465","1962-08-23",68.00,42.98,0.00,0.00,
"CA001181465","1962-08-24",64.04,46.94,0.00,0.00,
"CA001181465","1962-08-25",53.96,39.92,20.00,0.00,
"CA001181465","1962-08-26",60.98,39.92,0.00,0.00,
"CA001181465","1962-08-27",51.98,42.98,112.00,0.00,
"CA001181465","1962-08-28",57.92,42.08,0.00,0.00,
"CA001181465","1962-08-29",64.04,44.06,3.00,0.00,
"CA001181465","1962-08-30",68.00,44.96,38.00,0.00,
"CA001181465","1962-08-31",64.94,46.94,33.00,0.00,
"CA001181465","1962-09-01",50.00,41.00,0.00,0.00,
"CA001181465","1962-09-02",53.96,28.04,0.00,0.00,
"CA001181465","1962-09-03",68.00,41.00,0.00,0.00,
"CA001181465","1962-09-04",71.96,46.04,0.00,0.00,
"CA001181465","1962-09-05",55.94,46.94,18.00,0.00,
"CA001181465","1962-09-06",42.98,42.08,13.00,0.00,
"CA001181465","1962-09-07",46.04,26.96,0.00,0.00,
"CA001181465","1962-09-08",55.04,28.94,0.00,0.00,
"CA001181465","1962-09-09",57.02,44.06,0.00,0.00,
"CA001181465","1962-09-10",53.96,39.02,0.00,0.00,
"CA001181465","1962-09-11",44.96,33.08,8.00,0.00,
"CA001181465","1962-09-12",53.96,30.02,0.00,0.00,
"CA001181465","1962-09-13",57.92,35.06,0.00,0.00,
"CA001181465","1962-09-14",59.00,37.04,0.00,0.00,
"CA001181465","1962-09-15",57.02,37.94,0.00,0.00,
"CA001181465","1962-09-16",53.06,39.02,0.00,0.00,
"CA001181465","1962-09-17",57.92,42.08,0.00,0.00,
"CA001181465","1962-09-18",60.98,44.06,0.00,0.00,
"CA001181465","1962-09-19",69.98,37.04,0.00,0.00,
"CA001181465","1962-09-20",71.06,48.02,0.00,0.00,
"CA001181465","1962-09-21",75.02,44.06,0.00,0.00,
"CA001181465","1962-09-22",62.06,42.98,0.00,0.00,
"CA001181465","1962-09-23",69.08,37.04,0.00,0.00,
"CA001181465","1962-09-24",71.06,42.08,0.00,0.00,
"CA001181465","1962-09-25",75.02,46.04,0.00,0.00,
"CA001181465","1962-09-26",68.00,48.02,0.00,0.00,
"CA001181465","1962-09-27",51.98,44.96,0.00,0.00,
"CA001181465","1962-09-28",50.00,32.00,53.00,0.00,
"CA001181465","1962-09-29",59.00,39.02,0.00,0.00,
"CA001181465","1962-09-30",64.94,42.08,13.00,0.00,
"CA001181465","1962-10-01",55.94,44.06,58.00,0.00,
"CA001181465","1962-10-02",50.00,37.04,23.00,0.00,
"CA001181465","1962-10-03",44.96,33.98,5.00,0.00,
"CA001181465","1962-10-04",51.98,35.96,0.00,0.00,
"CA001181465","1962-10-05",51.08,35.06,0.00,0.00,
"CA001181465","1962-10-06",48.92,35.96,0.00,0.00,
"CA001181465","1962-10-07",50.00,26.06,0.00,0.00,
"CA001181465","1962-10-08",48.92,35.96,0.00,0.00,
"CA001181465","1962-10-09",48.02,32.00,0.00,0.00,
"CA001181465","1962-10-10",44.96,30.02,0.00,0.00,
"CA001181465","1962-10-11",44.06,32.00,76.00,76.00,
"CA001181465","1962-10-12",32.00,30.92,97.00,97.00,
"CA001181465","1962-10-13",30.92,26.06,0.00,0.00,
"CA001181465","1962-10-14",35.96,15.98,0.00,0.00,
"CA001181465","1962-10-15",46.04,30.02,0.00,0.00,
"CA001181465","1962-10-16",51.08,41.00,15.00,0.00,
"CA001181465","1962-10-17",51.98,39.02,8.00,0.00,
"CA001181465","1962-10-18",46.94,33.08,0.00,0.00,
"CA001181465","1962-10-19",48.02,35.06,0.00,0.00,
"CA001181465","1962-10-20",46.94,37.04,0.00,0.00,
"CA001181465","1962-10-21",42.08,26.06,0.00,0.00,
"CA001181465","1962-10-22",39.02,23.00,0.00,0.00,
"CA001181465","1962-10-23",39.92,26.06,0.00,0.00,
"CA001181465","1962-10-24",55.04,26.96,0.00,0.00,
"CA001181465","1962-10-25",60.08,37.04,0.00,0.00,
"CA001181465","1962-10-26",50.00,44.06,0.00,0.00,
"CA001181465","1962-10-27",59.00,37.04,0.00,0.00,
"CA001181465","1962-10-28",51.98,42.08,0.00,0.00,
"CA001181465","1962-10-29",57.92,39.02,0.00,0.00,
"CA001181465","1962-10-30",59.00,37.94,0.00,0.00,
"CA001181465","1962-10-31",37.94,30.02,0.00,0.00,
"CA001181465","1962-11-01",53.96,28.94,0.00,0.00,
"CA001181465","1962-11-02",53.06,42.08,0.00,0.00,
"CA001181465","1962-11-03",,26.96,0.00,0.00,
"CA001181465","1962-11-04",48.92,28.94,0.00,0.00,
"CA001181465","1962-11-05",33.98,24.98,33.00,33.00,
"CA001181465","1962-11-06",44.06,26.06,0.00,0.00,
"CA001181465","1962-11-07",46.94,33.08,145.00,25.00,
"CA001181465","1962-11-08",42.08,32.00,0.00,0.00,
"CA001181465","1962-11-09",30.02,23.00,0.00,0.00,
"CA001181465","1962-11-10",28.94,21.92,0.00,0.00,
"CA001181465","1962-11-11",39.02,19.04,13.00,13.00,
"CA001181465","1962-11-12",26.06,19.94,20.00,20.00,
"CA001181465","1962-11-13",23.00,19.94,8.00,8.00,
"CA001181465","1962-11-14",19.94,19.04,13.00,13.00,
"CA001181465","1962-11-15",15.98,15.08,51.00,51.00,
"CA001181465","1962-11-16",6.08,5.00,102.00,102.00,
"CA001181465","1962-11-17",5.00,-0.04,46.00,46.00,
"CA001181465","1962-11-18",37.04,3.02,0.00,0.00,
"CA001181465","1962-11-19",35.96,10.04,0.00,0.00,
"CA001181465","1962-11-20",32.00,24.08,0.00,0.00,
"CA001181465","1962-11-21",35.96,24.98,0.00,0.00,
"CA001181465","1962-11-22",30.92,23.00,0.00,0.00,
"CA001181465","1962-11-23",33.98,21.92,0.00,0.00,
"CA001181465","1962-11-24",39.02,24.98,0.00,0.00,
"CA001181465","1962-11-25",35.06,30.02,0.00,0.00,
"CA001181465","1962-11-26",26.06,24.08,0.00,0.00,
"CA001181465","1962-11-27",24.98,10.94,0.00,0.00,
"CA001181465","1962-11-28",28.04,17.96,0.00,0.00,
"CA001181465","1962-11-29",17.96,8.96,0.00,0.00,
"CA001181465","1962-11-30",21.92,6.08,0.00,0.00,
"CA001181465","1962-12-01",19.04,-0.94,0.00,0.00,
"CA001181465","1962-12-02",8.96,1.94,33.00,33.00,
"CA001181465","1962-12-03",19.94,1.04,0.00,0.00,
"CA001181465","1962-12-04",41.00,6.98,0.00,0.00,
"CA001181465","1962-12-05",42.98,15.08,0.00,0.00,
"CA001181465","1962-12-06",21.92,17.96,0.00,0.00,
"CA001181465","1962-12-07",19.94,8.06,13.00,13.00,
"CA001181465","1962-12-08",3.02,-4.00,51.00,51.00,
"CA001181465","1962-12-09",-4.00,-7.96,8.00,8.00,
"CA001181465","1962-12-10",32.00,-7.06,33.00,33.00,
"CA001181465","1962-12-11",42.08,-2.92,0.00,0.00,
"CA001181465","1962-12-12",39.92,35.06,0.00,0.00,
"CA001181465","1962-12-13",42.98,24.98,0.00,0.00,
"CA001181465","1962-12-14",42.08,33.98,0.00,0.00,
"CA001181465","1962-12-15",39.92,26.96,0.00,0.00,
"CA001181465","1962-12-16",21.92,8.96,0.00,0.00,
"CA001181465","1962-12-17",19.94,5.00,0.00,0.00,
"CA001181465","1962-12-18",12.92,8.96,0.00,0.00,
"CA001181465","1962-12-19",32.00,10.04,0.00,0.00,
"CA001181465","1962-12-20",35.06,15.98,147.00,147.00,
"CA001181465","1962-12-21",8.96,5.00,0.00,0.00,
"CA001181465","1962-12-22",5.00,-4.00,0.00,0.00,
"CA001181465","1962-12-23",10.04,-9.04,0.00,0.00,
"CA001181465","1962-12-24",19.94,3.92,0.00,0.00,
"CA001181465","1962-12-25",30.92,10.04,25.00,25.00,
"CA001181465","1962-12-26",17.96,8.96,102.00,102.00,
"CA001181465","1962-12-27",6.98,6.08,0.00,0.00,
"CA001181465","1962-12-28",-11.92,-16.06,0.00,0.00,
"CA001181465","1962-12-29",-7.96,-22.00,160.00,160.00,
"CA001181465","1962-12-30",-5.08,-14.08,114.00,114.00,
"CA001181465","1962-12-31",-5.98,-7.06,0.00,0.00,
"CA001181465","1963-04-01",23.00,-7.96,0.00,0.00,
"CA001181465","1963-04-02",37.94,6.08,0.00,0.00,
"CA001181465","1963-04-03",42.98,15.08,0.00,0.00,
"CA001181465","1963-04-04",48.02,23.00,0.00,0.00,
"CA001181465","1963-04-05",35.96,21.02,58.00,58.00,
"CA001181465","1963-04-06",23.00,17.96,38.00,38.00,
"CA001181465","1963-04-07",24.98,15.98,20.00,20.00,
"CA001181465","1963-04-08",33.08,15.08,0.00,0.00,
"CA001181465","1963-04-09",35.96,10.94,0.00,0.00,
"CA001181465","1963-04-10",48.92,15.98,0.00,0.00,
"CA001181465","1963-04-11",48.02,33.98,0.00,0.00,
"CA001181465","1963-04-12",55.94,35.96,0.00,0.00,
"CA001181465","1963-04-13",51.08,37.94,0.00,0.00,
"CA001181465","1963-04-14",50.00,35.96,0.00,0.00,
"CA001181465","1963-04-15",48.92,35.06,193.00,0.00,
"CA001181465","1963-04-16",46.94,33.98,0.00,0.00,
"CA001181465","1963-04-17",48.02,30.92,0.00,0.00,
"CA001181465","1963-04-18",46.94,28.94,0.00,0.00,
"CA001181465","1963-04-19",32.00,28.04,0.00,0.00,
"CA001181465","1963-04-20",33.08,26.06,0.00,0.00,
"CA001181465","1963-04-21",39.92,24.08,0.00,0.00,
"CA001181465","1963-04-22",51.08,24.98,0.00,0.00,
"CA001181465","1963-04-23",55.94,28.04,0.00,0.00,
"CA001181465","1963-04-24",55.94,37.94,0.00,0.00,
"CA001181465","1963-04-25",57.02,37.04,0.00,0.00,
"CA001181465","1963-04-26",55.94,35.96,0.00,0.00,
"CA001181465","1963-04-27",53.96,33.98,0.00,0.00,
"CA001181465","1963-04-28",57.92,32.00,0.00,0.00,
"CA001181465","1963-04-29",55.94,37.94,0.00,0.00,
"CA001181465","1963-04-30",57.02,37.04,0.00,0.00,
"CA001181465","1963-05-01",51.08,33.98,43.00,43.00,
"CA001181465","1963-05-02",30.92,26.06,0.00,0.00,
"CA001181465","1963-05-03",35.96,19.94,0.00,0.00,
"CA001181465","1963-05-04",42.98,24.08,0.00,0.00,
"CA001181465","1963-05-05",42.98,26.96,0.00,0.00,
"CA001181465","1963-05-06",44.96,30.02,0.00,0.00,
"CA001181465","1963-05-07",55.04,33.98,0.00,0.00,
"CA001181465","1963-05-08",50.00,32.00,51.00,0.00,
"CA001181465","1963-05-09",53.96,33.08,0.00,0.00,
"CA001181465","1963-05-10",57.92,37.94,0.00,0.00,
"CA001181465","1963-05-11",60.98,37.04,0.00,0.00,
"CA001181465","1963-05-12",53.96,39.92,0.00,0.00,
"CA001181465","1963-05-13",60.08,42.08,3.00,0.00,
"CA001181465","1963-05-14",57.02,42.98,0.00,0.00,
"CA001181465","1963-05-15",57.92,42.08,5.00,0.00,
"CA001181465","1963-05-16",55.94,37.04,0.00,0.00,
"CA001181465","1963-05-17",55.04,35.06,0.00,0.00,
"CA001181465","1963-05-18",64.04,32.00,0.00,0.00,
"CA001181465","1963-05-19",69.98,37.94,0.00,0.00,
"CA001181465","1963-05-20",71.06,39.92,0.00,0.00,
"CA001181465","1963-05-21",73.04,44.96,0.00,0.00,
"CA001181465","1963-05-22",77.00,48.02,0.00,0.00,
"CA001181465","1963-05-23",68.00,39.92,0.00,0.00,
"CA001181465","1963-05-24",48.02,33.98,36.00,0.00,
"CA001181465","1963-05-25",42.08,30.02,5.00,0.00,
"CA001181465","1963-05-26",57.92,30.92,0.00,0.00,
"CA001181465","1963-05-27",55.04,30.92,38.00,0.00,
"CA001181465","1963-05-28",60.08,42.98,0.00,0.00,
"CA001181465","1963-05-29",62.96,39.92,0.00,0.00,
"CA001181465","1963-05-30",62.06,32.00,0.00,0.00,
"CA001181465","1963-05-31",62.96,44.96,0.00,0.00,
"CA001181465","1963-06-01",62.06,44.96,8.00,0.00,
"CA001181465","1963-06-02",66.02,41.00,0.00,0.00,
"CA001181465","1963-06-03",69.98,46.04,0.00,0.00,
"CA001181465","1963-06-04",64.04,42.98,0.00,0.00,
"CA001181465","1963-06-05",66.92,44.06,0.00,0.00,
"CA001181465","1963-06-06",62.96,41.00,0.00,0.00,
"CA001181465","1963-06-07",66.02,41.00,0.00,0.00,
"CA001181465","1963-06-08",64.94,42.08,0.00,0.00,
"CA001181465","1963-06-09",69.08,46.04,0.00,0.00,
"CA001181465","1963-06-10",69.98,48.02,15.00,0.00,
"CA001181465","1963-06-11",62.06,51.08,124.00,0.00,
"CA001181465","1963-06-12",57.92,41.00,0.00,0.00,
"CA001181465","1963-06-13",64.04,39.92,0.00,0.00,
"CA001181465","1963-06-14",71.06,42.98,0.00,0.00,
"CA001181465","1963-06-15",75.02,50.00,3.00,0.00,
"CA001181465","1963-06-16",78.98,51.08,0.00,0.00,
"CA001181465","1963-06-17",71.06,51.98,0.00,0.00,
"CA001181465","1963-06-18",73.94,46.04,99.00,0.00,
"CA001181465","1963-06-19",66.92,51.98,0.00,0.00,
"CA001181465","1963-06-20",64.04,46.94,25.00,0.00,
"CA001181465","1963-06-21",57.02,42.98,38.00,0.00,
"CA001181465","1963-06-22",62.96,39.02,0.00,0.00,
"CA001181465","1963-06-23",73.04,42.08,0.00,0.00,
"CA001181465","1963-06-24",60.98,51.98,0.00,0.00,
"CA001181465","1963-06-25",57.02,39.02,0.00,0.00,
"CA001181465","1963-06-26",60.08,39.92,0.00,0.00,
"CA001181465","1963-06-27",64.94,39.92,15.00,0.00,
"CA001181465","1963-06-28",69.98,42.08,0.00,0.00,
"CA001181465","1963-06-29",71.06,46.04,0.00,0.00,
"CA001181465","1963-06-30",73.04,51.08,0.00,0.00,
"CA001181465","1963-07-01",77.00,51.08,5.00,0.00,
"CA001181465","1963-07-02",80.96,48.02,0.00,0.00,
"CA001181465","1963-07-03",84.02,51.98,30.00,0.00,
"CA001181465","1963-07-04",80.06,53.06,0.00,0.00,
"CA001181465","1963-07-05",77.00,59.00,0.00,0.00,
"CA001181465","1963-07-06",78.08,55.94,41.00,0.00,
"CA001181465","1963-07-07",69.98,55.04,3.00,0.00,
"CA001181465","1963-07-08",60.98,51.98,66.00,0.00,
"CA001181465","1963-07-09",62.96,51.98,25.00,0.00,
"CA001181465","1963-07-10",60.98,46.94,0.00,0.00,
"CA001181465","1963-07-11",66.02,39.92,13.00,0.00,
"CA001181465","1963-07-12",71.06,48.02,0.00,0.00,
"CA001181465","1963-07-13",71.06,51.08,0.00,0.00,
"CA001181465","1963-07-14",73.04,53.06,0.00,0.00,
"CA001181465","1963-07-15",68.00,51.08,0.00,0.00,
"CA001181465","1963-07-16",78.98,,0.00,0.00,
"CA001181465","1963-07-17",73.04,50.00,0.00,0.00,
"CA001181465","1963-07-18",78.08,51.98,0.00,0.00,
"CA001181465","1963-07-19",69.98,53.06,0.00,0.00,
"CA001181465","1963-07-20",66.92,46.94,0.00,0.00,
"CA001181465","1963-07-21",64.04,48.02,0.00,0.00,